Location: Peebles
(55.6412°N, 3.1714°W)
Time: 11:35:49
(UTC+01:00)

NOAA 16 DEB - Pass Details

Date: 06 July 2022
Orbit: 830 x 847 km, 98.8° (Epoch: 13 August)

Event Time Altitude Azimuth Distance (km) Brightness Sun altitude
Exits shadow 22:56:40 - 172° (S) 2,906 ? -6.2°
Reaches altitude 10° 22:57:52 10° 174° (S) 2,437 ? -6.3°
Maximum altitude 23:03:15 67° 257° (WSW) 908 ? -6.7°
Drops below altitude 10° 23:08:41 10° 340° (NNW) 2,462 ? -7.1°
Sets 23:11:05 0° 343° (NNW) 3,403 ? -7.2°
